Gainesville, FL

11:26 AM EDT on April 26, 2017 (GMT -0400)
Gainesville Regional

Weather History for KGNV - September, 2013

Change the Weather History Date:

Sunday, September 15, 2013

  Actual Average Record
Temperature  
Mean Temperature 83 °F 79 °F  
Max Temperature 94 °F 88 °F 96 °F (1906)
Min Temperature 71 °F 69 °F 60 °F (1976)
Degree Days  
Heating Degree Days 0 0  
Month to date heating degree days 0 0  
Since 1 July heating degree days 0 0  
Cooling Degree Days 18 14  
Month to date cooling degree days 238 217  
Year to date cooling degree days 2300 2161  
Growing Degree Days 31 (Base 50)    
Moisture  
Dew Point 72 °F    
Average Humidity 72    
Maximum Humidity 94    
Minimum Humidity 49    
Precipitation  
Precipitation 0.17 in 0.14 in 1.14 in (1932)
Month to date precipitation 0.71 2.40  
Year to date precipitation 37.41 37.97  
Snow  
Snow 0.00 in 0.00 in 0.00 in ()
Month to date snowfall 0.0 0.0  
Since 1 July snowfall 0.0 0.0  
Since 1 September snowfall 0.0 0.0  
Snow Depth 0.00 in    
Sea Level Pressure  
Sea Level Pressure 30.04 in    
Wind  
Wind Speed 3 mph (East)    
Max Wind Speed 16 mph    
Max Gust Speed 20 mph    
Visibility 8 miles    
Events Rain    
T = Trace of Precipitation, MM = Missing Value Source: NWS Daily Summary

Daily Weather History Graph

Daily Weather History Graph

Search for Another Location

Airport or City:

Trip Planner

Search our weather history database for the weather conditions in past years. The results will help you decide how hot, cold, wet, or windy it might be!

Date:

Astronomy

Sep. 15, 2013 Rise Set
Actual Time 7:13 AM EDT 7:34 PM EDT
Civil Twilight 6:49 AM EDT 7:57 PM EDT
Nautical Twilight 6:22 AM EDT 8:25 PM EDT
Astronomical Twilight 5:53 AM EDT 8:53 PM EDT
Moon 4:47 PM EDT (9/15) 3:05 AM EDT (9/15)
Length of Visible Light 13h 07m
Length of Day
12h 20m
Waxing Gibbous, 82% of the Moon is Illuminated
Sep 15
Waxing Gibbous
Sep 19
Full
Sep 26
Last Quarter
Oct 4
New
Oct 11
First Quarter

Hourly Weather History & Observations

Time (EDT) Temp. Heat Index Dew Point Humidity Pressure Visibility Wind Dir Wind Speed Gust Speed Precip Events Conditions
12:53 AM 75.0 °F - 71.1 °F 87% 29.99 in 10.0 mi Calm Calm - N/A   Clear
1:53 AM 73.0 °F - 70.0 °F 90% 30.00 in 9.0 mi Calm Calm - N/A   Clear
2:53 AM 73.0 °F - 70.0 °F 90% 30.00 in 8.0 mi Calm Calm - N/A   Clear
3:53 AM 73.9 °F - 71.1 °F 91% 29.99 in 8.0 mi Calm Calm - N/A   Clear
4:53 AM 72.0 °F - 69.1 °F 91% 30.00 in 6.0 mi NNE 3.5 mph - N/A   Clear
5:53 AM 71.1 °F - 69.1 °F 93% 30.01 in 5.0 mi Calm Calm - N/A   Clear
6:53 AM 72.0 °F - 70.0 °F 93% 30.02 in 1.0 mi Calm Calm - N/A   Mist
7:00 AM 71.6 °F - 69.8 °F 94% 30.03 in 0.8 mi Calm Calm - N/A   Mist
7:08 AM 71.6 °F - 69.8 °F 94% 30.04 in 3.0 mi Calm Calm - N/A   Clear
7:22 AM 71.6 °F - 69.8 °F 94% 30.04 in 3.0 mi Calm Calm - N/A   Partly Cloudy
7:53 AM 73.0 °F - 71.1 °F 93% 30.04 in 3.0 mi SE 3.5 mph - N/A   Clear
8:53 AM 79.0 °F - 73.9 °F 84% 30.06 in 7.0 mi Calm Calm - N/A   Clear
9:53 AM 82.9 °F 90.2 °F 75.0 °F 77% 30.06 in 10.0 mi ESE 5.8 mph - N/A   Clear
10:53 AM 87.1 °F 95.4 °F 73.9 °F 65% 30.06 in 10.0 mi East 4.6 mph - N/A   Partly Cloudy
11:53 AM 88.0 °F 93.8 °F 71.1 °F 57% 30.06 in 10.0 mi Variable 6.9 mph - N/A   Partly Cloudy
12:53 PM 89.1 °F 95.0 °F 71.1 °F 55% 30.06 in 10.0 mi East 5.8 mph - N/A   Mostly Cloudy
1:53 PM 91.9 °F 97.4 °F 70.0 °F 48% 30.05 in 10.0 mi East 6.9 mph - N/A   Mostly Cloudy
2:53 PM 91.0 °F 97.6 °F 71.1 °F 52% 30.03 in 10.0 mi East 10.4 mph - N/A   Scattered Clouds
3:53 PM 91.0 °F 97.6 °F 71.1 °F 52% 30.01 in 10.0 mi ENE 12.7 mph 19.6 mph 0.00 in   Partly Cloudy
4:22 PM 82.4 °F 88.2 °F 73.4 °F 74% 30.03 in 1.8 mi Variable 4.6 mph - 0.03 in Rain Heavy Rain
4:29 PM 82.4 °F 88.2 °F 73.4 °F 74% 30.03 in 10.0 mi ESE 8.1 mph - 0.11 in Rain Light Rain
4:53 PM 82.9 °F 90.8 °F 75.9 °F 79% 30.01 in 10.0 mi ENE 3.5 mph - 0.17 in Rain Light Rain
5:53 PM 84.0 °F 91.2 °F 73.9 °F 72% 30.03 in 10.0 mi East 6.9 mph - 0.00 in   Clear
6:53 PM 82.0 °F 87.9 °F 73.9 °F 76% 30.05 in 10.0 mi Calm Calm - N/A   Clear
7:48 PM 80.6 °F 85.4 °F 73.4 °F 79% 30.06 in 10.0 mi East 3.5 mph - N/A   Partly Cloudy
7:53 PM 80.1 °F 84.5 °F 73.9 °F 81% 30.06 in 10.0 mi Calm Calm - N/A   Partly Cloudy
8:53 PM 79.0 °F - 73.9 °F 84% 30.06 in 10.0 mi ESE 3.5 mph - N/A   Clear
9:53 PM 77.0 °F - 73.9 °F 90% 30.10 in 10.0 mi Calm Calm - N/A   Mostly Cloudy
10:53 PM 77.0 °F - 73.9 °F 90% 30.10 in 10.0 mi Calm Calm - N/A   Partly Cloudy
11:22 PM 75.2 °F - 73.4 °F 94% 30.11 in 8.0 mi Calm Calm - N/A   Mostly Cloudy
11:50 PM 77.0 °F - 73.4 °F 89% 30.10 in 10.0 mi Calm Calm - N/A   Scattered Clouds
11:53 PM 75.9 °F - 73.9 °F 94% 30.09 in 10.0 mi Calm Calm - N/A   Scattered Clouds